User: anonymous   Login
Location: Allison's Woods
(35.8809°N, 80.8140°W)
Time: 13:32:33
(UTC-04:00)
Language:

Iridium 39 - Orbit

View from above orbital plane
View from above orbital plane
View from above satellite
View from above satellite

Ground track
Ground track

The orbit data is extracted from the following two-line orbital elements,

1 25042U 97069D   18145.58066411 +.00000107 +00000-0 +24349-4 0  9998
2 25042 086.3959 233.0995 0016810 251.6577 108.2797 14.46239957075944
Epoch (UTC): 25 May 2018 13:56:09
Eccentricity: 0.0016810
inclination: 86.3959°
perigee height: 726 km
apogee height: 750 km
right ascension of ascending node: 233.0995°
argument of perigee: 251.6577°
revolutions per day: 14.46239957
mean anomaly at epoch: 108.2797°
orbit number at epoch: 7594

The dashed part of the orbit path shows where the satellite is in the earth's shadow,  

DLR